DELTA 1 DEB, 10870

Orbit data source: Space-Track

DELTA 1 DEB, 10870 is space debris in SSO originally from a launch on Thu, 29 Jul 1976 UTC launched from the Air Force Western Test Range (AFWTR). Debris objects in space refer to the collection of defunct objects orbiting the Earth. Examples of debris include non-operational satellites, rocket bodies, and fragments generated from explosions, collisions, or faulty payload assembly.

Loading next visibility...
Identifier
10870, 1976-077CY
Orbit
SSO
Country
Flag of USUS
Related business
Manufacturer
Unknown
Mission
Spacecraft
Bus & Motor
Unknown
Mass
Unknown
Launch date (UTC)
1976-07-29 (50 years ago)
Launch vehicle
Unknown
Launch site
Air Force Western Test Range (AFWTR)
Object type
Payload
Rocket body
Debris
Shape & HBR
Unknown shape, 0.2 m
Radar Cross Section
Medium (>0.1 m² and <1 m²)

Expand to show TLE details & history
Last TLE update: 21 hours ago

TLE from 21 hours ago
0 DELTA 1 DEB
1 10870U 76077CY  26255.18819606  .00000066  00000-0  73193-3 0  9990
2 10870 101.7391 235.7579 0020140  26.0973 349.6522 12.48972318274720
Epoch: 2026-09-12T04:31Z
TLE epoch observation values (Epoch: 2026-09-12T04:31:00.139Z)
Latitude
15.35226°
Longitude
173.55202°
Altitude
1,455.144 km
Speed
7.143 km/s
True Right ascension
15h 30m 00s
True Declination
15° 16' 21"
Sunlit
Object was in daylight at epoch
Visualization orbit readout
Latitude
Unknown
Longitude
Unknown
Altitude
Unknown
Speed
Unknown
Apparent Right ascension
Unknown
Apparent Declination
Unknown
Sunlit
N/A
Visualization observer readout
Local Sidereal Time
17:33:42
Azimuth
Unknown
Elevation
Unknown
Doppler factor
Unknown
Orbital elements
Apogee altitude
1,482.143 km
Perigee altitude
1,450.545 km
Semi-major axis
7,844.481 km
Eccentricity
0.00201
Inclination
101.7391°
RAAN
235.7579°
Arg. of periapsis
26.0973°
True anomaly
349.61064°
Mean anomaly
349.6522°
Eccentric anomaly
349.63143°
Mean motion
3.1239 °/min
Orbital period
115.24 mins
BSTAR
0.00073193
Loading maneuver chart data...
Computing Atmospheric mass density...
Loading historical data...
Loading historical data...
Loading historical data...
Loading historical data...
Loading historical data...
Loading historical data...
Loading historical data...

Documentation

Showing up to 5 results
|